www.pogodaiklimat.ru
Время
и дата
16:45 07.12
16:56 07.12
17:15 07.12
17:27 07.12
17:48 07.12
17:56 07.12
18:15 07.12
18:47 07.12
18:56 07.12
18:59 07.12
19:17 07.12
19:53 07.12
19:56 07.12
20:08 07.12
20:28 07.12
20:44 07.12
20:52 07.12
20:56 07.12
21:09 07.12
21:19 07.12
21:49 07.12
21:54 07.12
21:56 07.12
22:33 07.12
22:56 07.12
23:04 07.12
23:54 07.12
23:56 07.12
00:08 08.12
00:19 08.12
00:56 08.12
01:03 08.12
01:27 08.12
01:41 08.12
01:56 08.12
02:56 08.12
03:56 08.12
04:32 08.12
04:56 08.12
05:56 08.12
06:56 08.12
07:56 08.12
08:56 08.12
09:56 08.12
10:56 08.12
11:56 08.12
12:56 08.12
13:56 08.12
Ветер
(напр.,м/с)
Видим. Явления Облачность Т
(С)
Тd
(С)
f
(%)
Тe
(С)
Тes
(С)
Комфортность P
(гПа)
Po
(гПа)
Тmin
(С)
Tmax
(С)
R
(мм)
R24
(мм)
S
(см)
штиль 0 400 м туман ?/? +9.4 +8.9 97 +8 +8 1008.8
штиль 0 400 м туман ?/? +9.4 +8.9 97 +8 +8 1020.3 1008.4
штиль 0 400 м туман ?/? +9.4 +8.9 97 +8 +8 1008.4
штиль 0 400 м туман ?/? +9.4 +8.9 97 +8 +8 1008.4
З 2 400 м туман ?/? +9.4 +8.9 97 +8 +8 1008.8
штиль 0 400 м туман ?/? +8.9 +8.3 96 +8 +8 1020.6 1008.8
СЗ 2 400 м туман ?/? +8.9 +8.9 100 +7 +7 1009.4
З 2 400 м туман ?/? +8.9 +8.9 100 +7 +7 1009.4
СЗ 2 400 м туман ?/? +9.4 +8.9 97 +8 +8 1021.5 1009.8 +7.8 +10.6
СЗ 2 400 м туман ?/? +9.4 +8.9 97 +8 +8 1009.8
штиль 0 400 м туман ?/? +9.4 +9.4 100 +8 +8 1009.8
штиль 0 400 м туман ?/? +9.0 +9.0 100 +8 +8 1010.1
штиль 0 400 м туман ?/? +9.4 +8.9 97 +8 +8 1021.7 1010.1
штиль 0 1 км дымка 10/10 90 м +10.0 +8.9 93 +9 +9 1010.1
З 2 400 м туман 10/10 90 м +8.3 +8.3 100 +6 +6 1010.1
СЗ 3 400 м туман ?/? +8.9 +8.3 96 +6 +6 1010.4
СЗ 3 400 м туман ?/? +9.0 +8.0 93 +6 +6 1010.4
СЗ 4 400 м туман ?/? +9.4 +8.9 97 +6 +6 1022.4 1010.8
СЗ 5 800 м туман ?/? +9.4 +8.9 97 +6 +6 1010.8
СЗ 4 400 м туман ?/? +9.4 +8.9 97 +6 +6 1010.8
СЗ 4 400 м туман ?/? +9.4 +9.4 100 +6 +6 1010.8
СЗ 3 800 м туман ?/? +10.0 +9.0 93 +8 +8 1010.8
СЗ 3 400 м туман ?/? +10.0 +9.4 96 +8 +8 1022.5 1010.8
СЗ 4 800 м туман 10/10 60 м +9.4 +9.4 100 +6 +6 1010.8
СЗ 3 2 км дымка 10/10 1440 м +9.4 +9.4 100 +7 +7 1022.6 1010.8
СЗ 4 1 км дымка 10/10 60 м +9.4 +9.4 100 +6 +6 1010.8
С 3 400 м туман 10/10 60 м +9.0 +9.0 100 +6 +6 1010.8
С 3 400 м туман 5/5 60 м +8.9 +8.9 100 +6 +6 1022.5 1010.8
штиль 0 400 м туман 10/10 30 м +8.3 +7.8 97 +7 +7 1010.8
штиль 0 200 м туман 10/10 30 м +7.2 +7.2 100 +6 +6 1010.8
штиль 0 200 м туман ?/? +6.7 +6.1 96 +6 +6 1022.5 1010.8 +6.1 +10.0
штиль 0 400 м туман ?/? +5.6 +5.6 100 +4 +4 1010.8
штиль 0 400 м туман 8/8 60 м +5.6 +5.6 100 +4 +4 1010.8
штиль 0 3 км дымка 8/8 60 м +5.6 +5.6 100 +4 +4 1010.8
штиль 0 3 км дымка 8/8 1230 м +6.1 +6.1 100 +5 +5 1022.6 1010.8
ЮВ 2 3 км дымка 10/10 1170 м +5.6 +5.0 96 +3 +3 1023.2 1011.4
штиль 0 3 км дымка 8/8 990 м +5.6 +5.6 100 +4 +4 1023.5 1011.8
ЮВ 2 6 км дымка 2/2 1290 м +3.9 +3.9 100 +1 +1 1011.8
ЮВ 2 6 км дымка 5/5 1290 м +5.0 +4.4 96 +2 +2 1023.5 1011.8
С 2 6 км дымка 10/10 1440 м +7.2 +6.1 93 +5 +5 1024.1 1012.4
СЗ 2 16 км 8/8 1500 м +6.7 +5.6 93 +4 +4 1025.0 1013.1 +3.9 +7.8 0.3
штиль 0 16 км 8/8 1050 м +6.1 +5.0 93 +5 +5 1025.1 1013.1
СЗ 2 16 км 10/8 1320 m
[Ac]
+7.8 +7.2 96 +6 +6 1025.4 1013.4
штиль 0 16 км 8/5 1380 m
[Ac]
+8.3 +6.7 90 +7 +8 1025.6 1013.8
СЗ 4 16 км 5/5 990 м +11.1 +5.6 69 +9 +10 1026.2 1014.4
СЗ 5 16 км 10/8 1350 m
[Ac]
+10.6 +3.9 63 +8 +8 1025.4 1013.4
С 5 16 км 10/10 1230 м +10.0 +3.3 63 +7 +7 1025.2 1013.4 +4.4 +11.1
С 3 16 км 10/10 1080 м +9.4 +2.8 63 +7 +7 1024.6 1012.8
Местоположение метеостанции Harrisburg International Airport: широта 40.1936 долгота -76.7633 высота над уровнем моря 95 м.
В архиве по умолчанию представлена погода в Гаррисберге за последние 1-2 суток. Обновление информации о фактической погоде в базе происходит ежечасно! Архивные данные за месяц целиком и за предыдущие месяцы Вы можете получить, выбрав интересующий диапазон дат из раскрывающегося списка и нажав кнопку "Ввод!".
Внимание! Архив погоды МЕТАР в базе сайта по станциям, не включенным в климатический монитор, хранится не более 60 дней. Нет смысла пытаться выбрать более раннюю дату.
*Определитесь, кто Вы:
Внимание! Время в таблицах - местное (без учета летнего времени). Для получения всемирного времени необходимо вычесть поправку, которая равна -5 ч.
Смотрите также архив погоды в соседних городах и на ближайших метеорологических станциях:
Партнеры нашего сайта:      
Пояснения к столбцам:
  • Ветер - указаны скорость ветра в м/с - средняя за 10 мин, порывы в срок и между сроками (в фигурных скобках) и направление, откуда дует ветер: С - северный,
  • СВ - северо-восточный, В - восточный, ЮВ - юго-восточный, Ю - южный, ЮЗ - юго-западный, З - западный, СЗ - северо-западный.
  • Видимость - горизонтальная дальность видимости в метрах или километрах. При видимости от 1 до 10 км при отсутствии осадков обычно наблюдается дымка, при ухудшении видимости до 1 км и менее - туман. В сухую погоду видимость может ухудшаться дымом, пылью или мглою.
  • Явления - указаны атмосферные явления, наблюдавшиеся в срок или в последний час перед сроком; фигурными скобками обозначены явления, наблюдавшиеся между сроками (за 1-3 часа до срока); квадратными скобками обозначены град или гололедные отложения с указанием их диаметра в мм.
  • Облачность - указаны через наклонную черту общая и нижняя облачность в баллах и высота нижней границы облаков в метрах; квадратными скобками обозначены формы облаков: Ci - перистые, Cs - перисто-слоистые, Cc - перисто-кучевые, Ac - высококучевые, As - высокослоистые, Sc - слоисто-кучевые, Ns - слоисто-дождевые, Cu - кучевые, Cb - кучево-дождевые. Подробнее классификацию облаков см. в Атласе облаков (PDF).
  • T - Температура воздуха - температура, измеренная на высоте 2 м над землей.
  • Td - Температура точки росы - температура, при понижении до которой содержащийся в воздухе водяной пар достигнет насыщения.
  • f - Относительная влажность воздуха - влажноcть воздуха, измеренная на высоте 2 м над землей.
  • Te - Эффективная температура - температура, которую ощущает одетый по сезону человек в тени. Характеристика душности погоды. При расчете учитывается влияние влажности воздуха и скорости ветра на теплоощущения человека.
  • Tes - Эффективная температура на солнце - температура, которую ощущает человек, с поправкой на солнечный нагрев. Характеристика знойности погоды. Зависит от высоты солнца над горизонтом, облачности и скорости ветра. Ночью, в пасмурную погоду, а также при ветре 12 м/с и более поправка равна нулю.
  • P - Атмосферное давление - приведенное к уровню моря атмосферное давление.
  • Po - Атмосферное давление - измеренное на уровне метеостанции атмосферное давление.
  • Tmin - Минимальная температура - минимум температуры воздуха на высоте 2 м над землей.
  • Tmax - Максимальная температура - максимум температуры воздуха на высоте 2 м над землей.
  • R - Количество осадков - Количество выпавших осадков за период времени, мм. При наведении курсора мыши на число - период времени, за который выпало указанное количество осадков.
  • R24 - Количество осадков - Количество выпавших осадков за 24 часа, мм.
  • S - Снежный покров - Высота снежного покрова, см. При наведении курсора мыши на число - состояние снежного покрова и степень покрытия местности в баллах.